Location: Marsån
(66.4167°N, 22.2833°E)
Time: 08:18:32
(UTC+00:00)

Cosmos 1151 Rocket - Pass Details

Date: 24 February 2024
Orbit: 590 x 610 km, 82.5° (Epoch: 20 April)

Event Time Altitude Azimuth Distance (km) Brightness Sun altitude
Rises 17:36:13 0° 340° (NNW) 2,848 6.9 -13.9°
Reaches altitude 10° 17:38:31 10° 346° (NNW) 1,940 5.9 -14.1°
Maximum altitude 17:42:39 46° 61° (ENE) 802 3.3 -14.5°
Enters shadow 17:45:00 23° 124° (SE) 1,280 4.1 -14.7°
